Main page
METAR-TAF:

METAR-TAF

Airports :

A12-cpp, Netherlands

Oil platform

latitude: 55-23-57N, longitude: 3-48-37E, elevation: 33 m

Current weather observation

The report was made 24 minutes ago, at 01:55 UTC
Wind 17 kt from the North
Temperature 6°C
Humidity 70%
Pressure 1017 hPa
Visibility 10 km or more

METAR: EHAK 170155Z AUTO 35017KT 9999 FEW020/// 06/01 Q1017 W///H///

Time: 03:19 (02:19 UTC)


TAF: missing

Weather observations and forecasts of more than 4000 airports (METAR and TAF reports).

The available stations are represented by yellow and red dots on the map.

Hover mouse over dot to see the name of the station.

Then click to see weather observations and forecasts.

To change the map : click on the green buttons with a black cross to zoom in, on the green button with a dash to zoom out, or on the green arrows for adjacent maps.


METAR-TAF: